Location: Newark
(48.6461°N, 4.3644°W)
Time: 18:21:47
(UTC+00:00)

A-11 Canister half - Pass Details

Date: 02 February 2020
Orbit: 1517 x 1683 km, 47.2° (Epoch: 17 February)

Event Time Altitude Azimuth Distance (km) Brightness Sun altitude
Rises 19:16:40 0° 179° (S) 4,819 11.6 -20.0°
Reaches altitude 10° 19:21:28 10° 159° (SSE) 3,804 10.9 -20.8°
Enters shadow 19:25:30 16° 134° (SE) 3,353 10.4 -21.4°
